Etusivu
METAR-TAF:

METAR-TAF

Lentoasemat :

Wilbarger County Airport

Vernon, Texas, Yhdysvallat

Leveyspiiri: 34-13-32N, Pituuspiiri: 099-17-01W, korkeus merenpinnasta: 386 m

Tämänhetkinen sää

Tämä raportti tehtiin 24 minuuttia sitten, kello 10.35 UTC
Tuuli 14 kn pohjoisen/luoteesta
Lämpötila 9°C
Kosteus 61%
Ilmanpaine 1022 hPa
Näkyvyys: 16.1 km
selkeää

METAR: KF05 061035Z AUTO 33014KT 10SM CLR 09/02 A3017 RMK AO1 T00910023

Aika: 04:59 (10:59 UTC)


TAF: puuttuu

Säähavainnot ja -ennusteet yli 4000 lentoasemalta (METAR- ja TAF-raportit).

Käytössä olevat sääasemat on merkitty karttaan keltaisilla ja punaisilla pisteillä.

Aseta hiiri pisteen päälle nähdäksesi sääaseman nimen.

Klikkaa sitten nähdäksesi säähavainnot ja -ennusteet.

Kartan vaihtaminen: klikkaa mustalla rastilla varustettuja vihreitä pisteitä, niin voit zoomata sisään; viivalla varustettua vihreää pistettä, niin voit zoomata ulos tai vihreitä nuolia, niin pääset viereisille kartoille.


METAR-TAF: